THORAD DELTA 1 DEB, 42597

Orbit data source: Space-Track

THORAD DELTA 1 DEB, 42597 is space debris in SSO originally from a launch on Fri, 15 Nov 1974 UTC launched from the Air Force Western Test Range (AFWTR). Debris objects in space refer to the collection of defunct objects orbiting the Earth. Examples of debris include non-operational satellites, rocket bodies, and fragments generated from explosions, collisions, or faulty payload assembly.

Loading next visibility...
Identifier
42597, 1974-089FN
Orbit
SSO
Last TLE update
1 day ago
Origin
Manufacturer
Unknown
Mission
Spacecraft
Bus & Motor
Unknown
Mass
Unknown
Launch date (UTC)
1974-11-15 (51 years ago)
Launch vehicle
Unknown
Launch site
Air Force Western Test Range (AFWTR)
Object type
Payload
Rocket body
Debris
Shape & HBR
Unknown
Radar Cross Section
Small (<0.1 m²)

Expand to show TLE details & history

TLE from 1 day ago
0 THORAD DELTA 1 DEB
1 42597U 74089FN  25180.89770881  .00000093  00000-0  65005-3 0  9990
2 42597 101.5119 163.7307 0196270  40.1592 321.3811 12.69470729 83759
Epoch: 2025-06-29T21:32Z
TLE epoch observation values (Epoch: 2025-06-29T21:32:42.041Z)
Latitude
-0.00001°
Longitude
-77.65974°
Altitude
1,268.846 km
Speed
7.276 km/s
True Right ascension
10h 54m 55s
True Declination
0° 00' 00"
Sunlit
Object was in daylight at epoch
Visualization orbit readout
Latitude
-77.44742°
Longitude
-10.87797°
Altitude
1,491.318 km
Speed
7.081 km/s
Apparent Right ascension
02h 46m 48s
Apparent Declination
-74° 45' 15"
Sunlit
Object is in daylight
Visualization observer readout
Local Sidereal Time
14:59:06
Azimuth
178.587° S
Elevation
-55.133°
Doppler factor
1
Orbital elements
Apogee altitude
1,533.903 km
Perigee altitude
1,229.302 km
Semi-major axis
7,759.74 km
Eccentricity
0.01963
Inclination
101.5119°
RAAN
163.7307°
Arg. of periapsis
40.1592°
True anomaly
Unknown
Mean anomaly
321.3811°
Eccentric anomaly
Unknown
Mean motion
3.17521 °/min
Orbital period
113.38 mins
BSTAR
0.00065005
Loading maneuver chart data...
Loading SW <> Apogee altitude chart data...

THORAD DELTA 1 DEB Visibility forecast

Observer location: undefined°, undefined°

Span
Click to sort rows by Start time (UTC) header in descending order
Start Az.
Max El. time (UTC)
Max El. Az.
Max El.
End time (UTC)
End Az.
10 mins2025-07-01 10:07:48.840Z52.741° ENE2025-07-01 10:12:48.840Z92.447° ESE17.492°2025-07-01 10:17:48.840Z131.218° SE
14 mins2025-07-01 11:58:48.840Z16.117° NNE2025-07-01 12:04:48.840Z328.022° NNW44.923°2025-07-01 12:12:48.840Z201.228° SSW
8 mins2025-07-01 13:51:48.840Z338.176° N2025-07-01 13:55:48.840Z302.75° NW18.509°2025-07-01 13:59:48.840Z270.576° WNW
9 mins2025-07-01 21:00:48.840Z92.485° ESE2025-07-01 21:04:48.840Z53.606° ENE20.049°2025-07-01 21:09:48.840Z9.507° NNE
12 mins2025-07-01 22:49:48.840Z169.373° S2025-07-01 22:55:48.840Z285.71° WNW43.893°2025-07-01 23:01:48.840Z339.155° N
|